Simultaneous Nadir Overpasses (SNOs) Predictions

Prediction of SNOs between AQUA and GOES-15 Satellite Orbit:

Table of predicted SNOs for the next 14.0 days since TLE Epoch: 12/2/2016
Index Date Time (AQUA) AQUA Lat,Lon GOES-15 Lat,Lon Distance(km) Time Diff (sec)
1 12/04/2016 10:37:40 0.01,-135.63 -0.01,-135.39 25.98 80
2 12/06/2016 10:25:28 -0.58,-132.66 -0.01,-135.38 309.00 80
3 12/06/2016 22:46:52 -0.53,-137.85 0.03,-135.33 286.41 80
4 12/08/2016 22:34:41 0.13,-134.90 0.03,-135.31 47.76 80
5 12/10/2016 22:22:29 0.74,-131.93 0.02,-135.28 381.30 80
6 12/11/2016 10:43:45 0.34,-137.09 -0.04,-135.32 202.02 80
7 12/13/2016 10:31:33 -0.27,-134.13 -0.03,-135.28 130.56 80
8 12/13/2016 22:52:57 -0.82,-139.32 0.05,-135.23 465.35 80
9 12/15/2016 10:19:21 -0.89,-131.17 -0.03,-135.23 462.57 80
10 12/15/2016 22:40:45 -0.20,-136.36 0.04,-135.18 133.40 80




NCC Satellite Simultaneous Nadir Overpasses (SNOs) Prediction Service
